EHI
3 10 26 41 48 51 56 59 55 49 40 30 22 19 17 15 15 16 13 8 5 4 3 3 2 1 0 0 0 0 0 0 0 0 0 0 0 0 0 0 0 0 0
4 10 25 40 48 51 55 59 58 53 45 35 27 23 19 17 17 17 13 8 5 3 3 3 2 1 0 0 0 0 0 0 0 0 0 0 0 0 0 0 0 0 0
7 11 23 38 46 47 51 57 59 55 47 39 33 27 22 19 19 17 13 8 5 3 2 1 1 0 0 0 0 0 0 0 0 0 0 0 0 0 0 0 0 0 0
11 13 22 35 42 42 46 52 54 51 45 40 35 28 22 20 18 17 13 9 5 2 1 0 0 0 0 0 0 0 0 0 0 0 0 0 0 0 0 0 0 0 0
14 15 22 33 38 37 41 46 47 45 43 40 35 28 22 19 17 15 12 9 5 2 0 0 0 0 0 0 0 0 0 0 0 0 0 0 0 0 0 0 0 0 0
13 15 24 34 37 36 37 38 39 40 40 39 34 27 22 19 16 13 10 7 3 1 0 0 0 0 0 0 0 0 0 0 0 0 0 0 0 0 0 0 0 0 0
11 15 26 35 37 34 31 32 34 37 39 37 33 27 22 18 14 11 8 5 2 0 0 0 0 0 0 0 0 0 0 0 0 0 0 0 0 0 0 0 0 0 0
11 16 25 32 34 29 27 28 32 36 38 36 32 28 22 17 13 10 7 3 0 0 0 0 0 0 0 0 0 0 0 0 0 0 0 0 0 0 0 0 0 0 0
11 15 21 26 28 24 21 24 27 31 33 33 30 26 21 15 11 9 5 1 0 0 0 0 0 0 0 0 0 0 0 0 0 0 0 0 0 0 0 0 0 0 0
11 13 16 21 24 20 16 16 19 21 24 26 24 20 15 11 8 6 3 0 0 0 0 0 0 0 0 0 0 0 0 0 0 0 0 0 0 0 0 0 0 0 0
10 10 12 17 20 19 14 12 13 14 15 17 17 14 10 7 5 3 1 0 0 0 0 0 0 0 0 0 0 0 0 0 0 0 0 0 0 0 0 0 0 0 0
8 7 9 12 15 16 15 14 13 12 11 11 11 10 8 6 4 1 0 0 0 0 0 0 0 0 0 0 0 0 0 0 0 0 0 0 0 0 0 0 0 0 0
6 5 6 8 12 14 14 16 17 15 12 10 9 8 7 6 3 1 0 0 0 0 0 0 0 0 0 0 0 0 0 0 0 0 0 0 0 0 0 0 0 0 0
4 4 5 8 12 14 14 16 16 16 13 11 10 8 7 6 3 1 0 0 0 0 0 0 0 0 0 0 0 0 0 0 0 0 0 0 0 0 0 0 0 0 0
2 4 5 9 14 15 15 16 14 12 11 10 9 9 7 5 3 1 0 0 0 0 0 0 0 0 0 0 0 0 0 0 0 0 0 0 0 0 0 0 0 0 0
1 2 4 8 11 13 14 15 13 10 7 7 8 7 6 3 1 0 0 0 0 0 0 0 0 0 0 0 0 0 0 0 0 0 0 0 0 0 0 0 0 0 0
0 1 3 6 7 9 10 12 11 8 4 4 6 6 4 1 0 0 0 0 0 0 0 0 0 0 0 0 0 0 0 0 0 0 0 0 0 0 0 0 0 0 0
0 1 3 5 5 5 8 9 9 6 2 2 5 5 3 1 0 0 0 0 0 0 0 0 0 0 0 0 0 0 0 0 0 0 0 0 0 0 0 0 0 0 0
0 1 3 4 4 4 6 8 6 3 1 1 3 4 3 1 0 0 0 0 0 0 0 0 0 0 0 0 0 0 0 0 0 0 0 0 0 0 0 0 0 0 0
0 0 2 4 4 3 5 6 3 1 1 0 1 2 1 0 0 0 0 0 0 0 0 0 0 0 0 0 0 0 0 0 0 0 0 0 0 0 0 0 0 0 0
0 0 2 4 3 3 3 4 2 1 0 0 1 1 1 0 0 0 0 0 0 0 0 0 0 0 0 0 0 0 0 0 0 0 0 0 0 0 0 0 0 0 0
0 0 1 3 3 2 2 3 3 2 1 0 0 0 0 0 0 0 0 0 0 0 0 0 0 0 0 0 0 0 0 0 0 0 0 0 0 0 0 0 0 0 0
0 0 1 2 3 2 1 2 3 3 2 0 0 0 0 0 0 0 0 0 0 0 0 0 0 0 0 0 0 0 0 0 0 0 0 0 0 0 0 0 0 0 0
0 0 1 2 3 2 1 1 1 1 1 0 0 0 0 0 0 0 0 0 0 0 0 0 0 0 0 0 0 0 0 0 0 0 0 0 0 0 0 0 0 0 0
0 0 1 2 3 2 1 0 0 0 0 0 0 0 0 0 0 0 0 0 0 0 0 0 0 0 0 0 0 0 0 0 0 0 0 0 0 0 0 0 0 0 0
0 0 0 1 3 2 1 0 0 0 0 0 0 0 0 0 0 0 0 0 0 0 0 0 0 0 0 0 0 0 0 0 0 0 0 0 0 0 0 0 0 0 0
Wind_Speed
7 13 20 18 18 18 18 18 18 18 17 17 16 16 16 16 16 16 16 16 16 16 16 16 16 16 16 16 16 15 15 15 15 15 14 14 15 14 14 14 14 11 17
8 14 20 18 18 18 18 18 18 18 17 17 17 16 16 16 16 16 16 16 16 16 16 16 16 16 16 16 15 15 14 14 14 14 15 13 14 15 16 16 16 11 17
9 14 18 17 17 17 17 17 17 18 18 17 17 17 17 17 16 16 16 16 16 16 16 16 16 16 16 15 15 14 13 11 11 10 11 7 9 15 16 15 16 16 17
8 12 15 17 17 17 17 17 18 18 18 17 17 17 17 17 17 16 16 16 16 16 16 16 16 16 15 15 14 13 11 9 8 7 6 6 7 14 15 15 15 16 16
6 10 15 18 17 17 17 17 18 18 18 18 17 17 17 17 17 16 16 16 16 16 16 16 16 15 15 14 13 12 10 8 7 7 7 7 6 13 15 15 15 16 16
5 7 14 19 18 17 17 17 18 18 19 18 18 17 17 17 17 16 16 16 16 16 16 16 16 15 15 14 12 10 8 6 5 6 7 6 5 13 15 15 15 15 15
4 5 13 19 19 18 18 18 18 18 19 19 18 18 17 17 16 16 16 16 16 16 16 16 15 15 14 13 11 9 6 5 5 7 7 6 7 13 14 14 14 15 15
3 5 10 18 18 18 18 18 18 19 19 19 19 18 18 17 17 17 16 16 16 16 16 16 15 14 13 12 10 7 4 4 8 9 7 6 10 13 14 13 13 14 14
2 3 7 12 14 16 17 17 18 18 18 19 19 18 18 17 18 18 17 16 16 16 16 15 15 14 13 12 9 5 3 5 4 5 8 5 10 12 13 13 12 13 12
2 3 6 9 10 11 12 15 16 17 18 18 18 17 16 16 17 17 16 16 16 16 16 15 15 14 13 11 8 3 2 3 4 6 5 5 10 11 12 12 12 12 12
4 5 6 8 9 10 10 13 14 15 17 17 15 17 15 10 10 11 13 15 16 16 16 16 15 14 12 9 7 3 1 1 5 5 4 8 10 10 11 11 11 11 10
5 6 6 7 8 9 9 9 8 9 11 11 11 13 10 9 8 10 14 15 15 15 15 15 15 14 9 4 4 3 1 3 5 5 4 8 9 10 10 10 10 9 9
7 7 6 6 7 7 6 7 6 6 7 10 12 12 9 8 7 8 7 8 9 11 8 10 9 5 4 4 3 3 2 2 3 4 5 8 8 9 10 9 8 8 8
7 8 7 7 7 7 7 7 7 6 7 7 10 13 9 7 7 8 6 6 6 5 6 6 4 5 5 6 5 3 3 3 4 4 4 8 8 8 9 8 7 7 6
9 8 8 7 8 7 7 6 7 8 8 9 9 11 11 8 9 9 7 7 7 6 7 6 5 6 5 5 4 4 4 4 5 5 4 8 7 7 7 7 6 5 5
9 9 8 9 9 8 7 7 7 8 8 9 9 11 13 10 9 9 9 8 7 7 7 6 5 5 4 4 4 4 4 4 5 6 5 5 7 7 6 5 5 4 3
9 9 9 9 9 9 8 8 7 7 8 8 8 11 13 12 11 10 9 8 7 7 7 5 5 4 4 4 4 4 4 4 4 5 5 4 4 5 6 5 4 3 2
8 9 9 8 8 9 8 7 6 7 8 9 9 10 13 14 13 10 9 8 8 7 6 5 5 4 4 4 3 3 3 3 4 4 4 4 4 3 4 5 4 4 2
8 8 9 9 9 8 8 7 6 7 8 8 9 9 12 14 14 11 9 8 9 7 6 6 5 5 5 4 3 3 3 3 3 3 4 4 4 4 3 4 5 4 3
7 7 7 7 8 8 7 5 4 5 6 7 8 10 13 13 14 12 9 11 10 7 6 6 6 5 4 4 4 3 2 2 2 3 4 3 4 4 4 4 3 3 4
6 6 7 6 7 6 6 7 6 6 5 6 8 11 14 14 14 12 10 11 10 8 8 8 6 7 5 4 4 2 0 2 3 3 3 3 4 4 4 4 3 3 2
7 6 6 7 7 7 6 6 6 6 5 6 7 10 13 14 14 12 13 11 10 8 9 9 7 5 4 5 5 4 2 1 2 3 3 3 4 3 4 4 4 3 3
6 6 6 7 7 7 6 5 6 5 5 5 7 9 11 14 14 13 13 12 11 10 9 9 9 7 6 5 5 5 4 4 2 2 3 3 4 3 3 3 4 4 3
5 5 6 8 8 8 7 7 9 8 8 6 7 8 10 14 14 13 13 13 12 10 10 10 9 7 8 7 5 3 3 4 4 2 2 3 4 4 4 3 4 4 3
4 3 5 7 8 8 8 8 9 8 7 5 7 10 11 11 14 14 14 12 12 10 11 11 10 9 7 6 5 4 2 1 2 4 3 3 2 3 3 4 4 3 3
3 3 5 6 7 7 8 9 9 8 8 8 9 10 10 8 10 14 14 12 12 11 12 11 11 11 8 7 5 4 4 4 3 3 3 3 3 3 3 3 4 4 3
Wind_Direction
127 149 161 163 162 160 158 156 153 150 147 145 143 140 136 132 129 126 124 121 119 118 115 113 110 106 102 98 95 92 90 89 87 86 86 85 83 81 80 79 76 67 72
133 149 161 163 164 163 161 158 154 151 150 149 147 144 140 136 133 131 128 126 123 121 118 115 112 109 105 102 100 97 95 95 95 92 88 84 84 83 79 76 79 75 74
130 146 161 164 165 164 163 159 156 154 153 151 149 147 143 141 137 134 131 129 127 124 121 117 113 109 106 104 102 100 100 101 101 95 90 86 82 85 82 80 79 76 75
130 144 163 165 167 167 166 163 159 157 156 154 153 151 148 145 141 138 134 131 128 125 121 118 115 111 109 106 105 104 104 102 95 84 82 81 80 84 84 82 81 78 76
131 148 160 165 170 171 170 167 163 160 159 158 156 154 151 148 144 141 137 133 129 126 123 120 117 115 112 110 109 109 107 96 79 80 81 76 75 85 84 83 82 80 78
130 146 157 165 172 174 174 171 167 164 162 160 158 155 152 149 146 142 139 135 132 129 126 123 120 118 115 114 114 112 103 83 64 79 79 79 77 87 87 86 85 83 79
139 147 158 167 174 177 177 175 171 167 165 162 158 155 153 150 146 143 140 138 136 133 130 126 124 121 118 118 118 115 97 59 89 84 80 78 85 91 90 87 85 83 79
148 152 158 170 174 179 179 177 174 170 168 163 159 157 154 151 147 145 143 142 140 137 134 132 129 126 123 122 122 115 70 40 97 97 88 82 95 94 92 88 86 84 81
145 160 162 172 177 178 179 178 176 172 169 165 161 158 154 152 150 148 146 145 144 142 139 137 134 130 128 126 126 115 54 48 80 101 98 88 98 97 94 90 88 86 83
177 185 180 175 178 178 178 178 177 175 171 167 162 156 151 151 151 149 147 148 147 145 143 140 136 133 130 130 132 125 31 44 94 93 95 101 102 102 100 95 92 89 86
204 196 192 180 178 177 177 180 176 175 173 167 160 152 149 151 149 148 146 149 150 148 146 142 139 136 133 137 146 168 302 112 102 92 91 108 109 108 105 101 96 92 88
220 209 198 186 181 179 180 176 176 176 173 170 163 160 159 153 151 147 146 149 150 149 147 145 142 141 139 146 166 194 224 140 110 104 108 118 117 115 110 106 102 97 91
225 216 206 196 185 180 178 176 176 173 173 172 168 168 159 147 145 141 146 147 146 147 144 143 146 160 162 156 171 197 188 116 107 109 115 123 125 122 117 113 108 103 97
231 222 209 197 190 185 179 181 177 173 174 173 172 171 159 152 150 151 152 155 155 155 147 154 166 173 159 158 176 172 135 109 110 110 118 122 127 129 125 122 117 111 102
230 226 213 201 195 191 182 182 180 177 178 175 175 172 159 154 156 156 157 160 160 154 156 166 174 165 159 164 169 152 139 121 119 116 119 124 123 129 130 130 126 121 113
227 221 214 205 199 193 189 185 181 180 179 174 174 171 161 159 160 159 158 162 160 157 162 171 171 157 160 153 155 147 138 131 124 126 129 129 130 132 134 139 136 131 127
228 216 211 206 203 195 191 191 183 180 175 175 174 172 165 162 163 162 158 161 159 158 163 166 160 150 147 145 152 151 138 134 136 138 139 142 143 146 150 151 151 150 150
232 216 209 208 205 198 191 191 184 182 178 174 173 174 170 164 163 162 158 162 159 159 161 159 152 143 143 147 150 145 131 130 139 145 143 146 148 148 158 167 171 174 176
241 219 206 200 200 199 193 191 188 185 182 176 172 174 173 167 163 160 158 160 158 159 160 159 150 148 150 153 148 139 135 142 154 150 152 155 151 149 151 164 171 182 196
244 225 207 195 196 199 189 181 182 179 183 180 174 172 172 169 164 160 158 161 160 159 160 158 153 151 151 152 142 132 140 151 158 161 167 156 157 160 157 162 167 186 198
238 224 211 199 197 194 185 179 180 180 182 185 177 172 172 169 166 162 160 162 162 163 165 162 155 155 154 143 123 120 113 177 176 178 173 165 174 173 167 169 170 167 186
233 220 214 206 199 197 192 181 181 179 181 190 179 176 172 169 169 168 163 164 163 162 165 167 156 154 162 153 145 139 148 240 249 200 178 179 183 172 176 176 172 173 173
232 220 222 211 203 202 194 184 181 177 177 191 184 177 176 170 169 169 168 164 166 166 169 169 164 160 163 168 170 160 157 187 192 223 203 187 185 182 186 182 183 181 177
238 223 224 214 207 202 187 190 188 191 189 197 185 178 179 175 170 169 169 170 169 170 169 171 168 164 162 170 188 197 167 148 148 170 232 208 195 193 191 184 181 183 181
241 227 229 219 210 203 189 190 194 199 192 188 182 181 181 178 173 171 169 174 173 174 172 172 168 169 171 172 172 172 175 139 144 145 185 209 213 210 191 183 179 183 185
238 225 234 219 211 203 196 197 197 196 192 188 186 183 181 176 176 175 172 175 176 176 175 174 172 173 176 177 173 169 164 162 175 163 172 187 202 215 199 186 180 181 182